Time,TemperatureF,DewpointF,PressureIn,WindDirection,WindDirectionDegrees,WindSpeedMPH,WindSpeedGustMPH,Humidity,HourlyPrecipIn,Conditions,Clouds,dailyrainin,SolarRadiationWatts/m^2,SoftwareType,DateUTC
2013-03-25 00:00:00,22.5,17.0,29.99,WNW,286,3.0,3.0,78,0.00,,,0.00,0,Custom,2013-03-25 05:00:00,
2013-03-25 00:05:00,22.4,17.0,29.99,WNW,286,0.0,2.0,78,0.00,,,0.00,0,Custom,2013-03-25 05:05:00,
2013-03-25 00:10:00,22.1,16.0,29.99,WNW,286,0.0,2.0,78,0.00,,,0.00,0,Custom,2013-03-25 05:10:00,
2013-03-25 00:15:00,22.1,17.0,29.99,WNW,286,0.0,3.0,79,0.00,,,0.00,0,Custom,2013-03-25 05:15:00,
2013-03-25 00:20:00,22.1,17.0,29.99,WNW,296,0.0,3.0,79,0.00,,,0.00,0,Custom,2013-03-25 05:20:00,
2013-03-25 00:25:00,22.1,17.0,29.99,WNW,283,0.0,1.0,79,0.00,,,0.00,0,Custom,2013-03-25 05:25:00,
2013-03-25 00:30:00,22.1,17.0,29.99,WNW,284,0.0,2.0,79,0.00,,,0.00,0,Custom,2013-03-25 05:30:00,
2013-03-25 00:35:00,21.8,16.0,29.99,WNW,285,0.0,2.0,79,0.00,,,0.00,0,Custom,2013-03-25 05:35:00,
2013-03-25 00:40:00,21.7,16.0,29.99,WNW,292,0.0,4.0,79,0.00,,,0.00,0,Custom,2013-03-25 05:40:00,
2013-03-25 00:45:00,21.8,16.0,29.99,West,269,0.0,4.0,79,0.00,,,0.00,0,Custom,2013-03-25 05:45:00,
2013-03-25 00:50:00,21.8,17.0,29.99,NNW,347,2.0,2.0,80,0.01,,,0.01,0,Custom,2013-03-25 05:50:00,
2013-03-25 00:55:00,21.9,17.0,29.99,WNW,288,0.0,2.0,80,0.01,,,0.01,0,Custom,2013-03-25 05:55:00,
2013-03-25 01:00:00,22.0,17.0,29.99,WNW,289,2.0,2.0,79,0.01,,,0.01,0,Custom,2013-03-25 06:00:00,
2013-03-25 01:05:00,21.8,16.0,29.99,WNW,287,0.0,3.0,79,0.01,,,0.01,0,Custom,2013-03-25 06:05:00,
2013-03-25 01:10:00,21.6,16.0,29.99,WNW,286,0.0,1.0,80,0.01,,,0.01,0,Custom,2013-03-25 06:10:00,
2013-03-25 01:15:00,21.4,16.0,29.99,West,281,3.0,3.0,80,0.01,,,0.01,0,Custom,2013-03-25 06:15:00,
2013-03-25 01:20:00,21.6,17.0,29.99,WNW,293,2.0,3.0,81,0.01,,,0.01,0,Custom,2013-03-25 06:20:00,
2013-03-25 01:25:00,21.5,17.0,29.99,WNW,292,2.0,3.0,81,0.01,,,0.01,0,Custom,2013-03-25 06:25:00,
2013-03-25 01:30:00,21.3,16.0,29.99,WNW,294,0.0,2.0,81,0.01,,,0.01,0,Custom,2013-03-25 06:30:00,
2013-03-25 01:35:00,21.0,16.0,29.99,WNW,294,0.0,2.0,81,0.01,,,0.01,0,Custom,2013-03-25 06:35:00,
2013-03-25 01:40:00,21.1,16.0,29.99,WNW,294,0.0,2.0,81,0.01,,,0.01,0,Custom,2013-03-25 06:40:00,
2013-03-25 01:45:00,21.0,16.0,29.99,West,270,3.0,3.0,81,0.01,,,0.01,0,Custom,2013-03-25 06:45:00,
2013-03-25 01:50:00,21.1,16.0,29.99,WNW,283,2.0,2.0,81,0.00,,,0.01,0,Custom,2013-03-25 06:50:00,
2013-03-25 01:55:00,21.1,16.0,29.98,WNW,283,0.0,2.0,81,0.00,,,0.01,0,Custom,2013-03-25 06:55:00,
2013-03-25 02:00:00,20.8,16.0,29.99,WNW,283,0.0,2.0,81,0.00,,,0.01,0,Custom,2013-03-25 07:00:00,
2013-03-25 02:05:00,20.9,16.0,29.99,WNW,283,0.0,4.0,82,0.00,,,0.01,0,Custom,2013-03-25 07:05:00,
2013-03-25 02:10:00,20.6,16.0,29.99,WNW,283,0.0,0.0,81,0.00,,,0.01,0,Custom,2013-03-25 07:10:00,
2013-03-25 02:15:00,20.5,16.0,29.99,WNW,284,2.0,2.0,82,0.00,,,0.01,0,Custom,2013-03-25 07:15:00,
2013-03-25 02:20:00,20.5,16.0,29.99,WNW,284,0.0,2.0,82,0.00,,,0.01,0,Custom,2013-03-25 07:20:00,
2013-03-25 02:25:00,20.6,16.0,29.99,WNW,284,2.0,2.0,82,0.00,,,0.01,0,Custom,2013-03-25 07:25:00,
2013-03-25 02:30:00,20.7,16.0,29.99,WNW,288,2.0,2.0,82,0.00,,,0.01,0,Custom,2013-03-25 07:30:00,
2013-03-25 02:35:00,20.9,16.0,29.99,WNW,287,2.0,4.0,82,0.00,,,0.01,0,Custom,2013-03-25 07:35:00,
2013-03-25 02:40:00,20.6,16.0,29.99,WNW,287,0.0,2.0,81,0.00,,,0.01,0,Custom,2013-03-25 07:40:00,
2013-03-25 02:45:00,20.5,16.0,29.99,WNW,287,0.0,2.0,82,0.00,,,0.01,0,Custom,2013-03-25 07:45:00,
2013-03-25 02:50:00,20.6,16.0,29.99,WNW,287,0.0,2.0,82,0.00,,,0.01,0,Custom,2013-03-25 07:50:00,
2013-03-25 02:55:00,20.7,16.0,29.98,WNW,287,0.0,2.0,82,0.00,,,0.01,0,Custom,2013-03-25 07:55:00,
2013-03-25 03:00:00,21.1,17.0,29.98,WNW,287,0.0,2.0,82,0.00,,,0.01,0,Custom,2013-03-25 08:00:00,
2013-03-25 03:05:00,21.1,17.0,29.99,WNW,287,0.0,4.0,82,0.00,,,0.01,0,Custom,2013-03-25 08:05:00,
2013-03-25 03:10:00,21.1,17.0,29.98,WNW,287,0.0,2.0,82,0.00,,,0.01,0,Custom,2013-03-25 08:10:00,
2013-03-25 03:15:00,21.3,17.0,29.98,WNW,287,2.0,2.0,82,0.00,,,0.01,0,Custom,2013-03-25 08:15:00,
2013-03-25 03:20:00,21.3,17.0,29.99,WNW,287,0.0,2.0,82,0.00,,,0.01,0,Custom,2013-03-25 08:20:00,
2013-03-25 03:25:00,21.3,17.0,29.98,WNW,287,0.0,1.0,82,0.00,,,0.01,0,Custom,2013-03-25 08:25:00,
2013-03-25 03:30:00,21.1,16.0,29.99,WNW,287,0.0,3.0,82,0.00,,,0.01,0,Custom,2013-03-25 08:30:00,
2013-03-25 03:35:00,20.9,16.0,29.98,WNW,287,2.0,2.0,82,0.00,,,0.01,0,Custom,2013-03-25 08:35:00,
2013-03-25 03:40:00,20.9,16.0,29.98,WNW,285,4.0,4.0,82,0.00,,,0.01,0,Custom,2013-03-25 08:40:00,
2013-03-25 03:45:00,21.1,17.0,29.98,West,281,1.0,4.0,82,0.00,,,0.01,0,Custom,2013-03-25 08:45:00,
2013-03-25 03:50:00,21.1,17.0,29.98,West,281,2.0,3.0,82,0.00,,,0.01,0,Custom,2013-03-25 08:50:00,
2013-03-25 03:56:00,21.0,17.0,29.98,WNW,294,0.0,3.0,83,0.00,,,0.01,0,Custom,2013-03-25 08:56:00,
2013-03-25 04:01:00,20.8,16.0,29.98,WNW,292,2.0,2.0,83,0.00,,,0.01,0,Custom,2013-03-25 09:01:00,
2013-03-25 04:06:00,20.7,16.0,29.97,WNW,292,0.0,2.0,83,0.00,,,0.01,0,Custom,2013-03-25 09:06:00,
2013-03-25 04:11:00,20.7,16.0,29.97,WNW,292,0.0,2.0,83,0.00,,,0.01,0,Custom,2013-03-25 09:11:00,
2013-03-25 04:17:00,20.7,17.0,29.98,WNW,286,0.0,5.0,84,0.00,,,0.01,0,Custom,2013-03-25 09:17:00,
2013-03-25 04:22:00,20.9,17.0,29.98,WNW,290,4.0,4.0,84,0.00,,,0.01,0,Custom,2013-03-25 09:22:00,
2013-03-25 04:27:00,21.0,17.0,29.97,WNW,290,0.0,3.0,84,0.00,,,0.01,0,Custom,2013-03-25 09:27:00,
2013-03-25 04:32:00,20.9,17.0,29.98,WNW,283,2.0,5.0,84,0.00,,,0.01,0,Custom,2013-03-25 09:32:00,
2013-03-25 04:37:00,21.1,17.0,29.98,West,281,2.0,3.0,85,0.00,,,0.01,0,Custom,2013-03-25 09:37:00,
2013-03-25 04:43:00,21.1,17.0,29.98,WNW,294,3.0,3.0,84,0.00,,,0.01,0,Custom,2013-03-25 09:43:00,
2013-03-25 04:48:00,21.5,18.0,29.98,WNW,289,0.0,3.0,85,0.00,,,0.01,0,Custom,2013-03-25 09:48:00,
2013-03-25 04:53:00,21.5,18.0,29.98,NW,306,2.0,3.0,85,0.00,,,0.01,0,Custom,2013-03-25 09:53:00,
2013-03-25 04:58:00,21.8,18.0,29.98,West,278,2.0,4.0,85,0.00,,,0.01,0,Custom,2013-03-25 09:58:00,
2013-03-25 05:03:00,21.9,18.0,29.99,WNW,285,0.0,3.0,84,0.00,,,0.01,0,Custom,2013-03-25 10:03:00,
2013-03-25 05:08:00,22.1,18.0,29.99,West,269,0.0,4.0,84,0.00,,,0.01,0,Custom,2013-03-25 10:08:00,
2013-03-25 05:13:00,22.2,18.0,29.99,WNW,290,2.0,3.0,85,0.00,,,0.01,0,Custom,2013-03-25 10:13:00,
2013-03-25 05:18:00,22.4,19.0,29.99,West,272,5.0,5.0,85,0.00,,,0.01,0,Custom,2013-03-25 10:18:00,
2013-03-25 05:23:00,22.5,19.0,29.99,WNW,288,0.0,4.0,85,0.00,,,0.01,0,Custom,2013-03-25 10:23:00,
2013-03-25 05:28:00,22.5,19.0,29.99,WNW,285,0.0,4.0,85,0.00,,,0.01,0,Custom,2013-03-25 10:28:00,
2013-03-25 05:33:00,22.6,19.0,29.99,WNW,290,0.0,4.0,85,0.00,,,0.01,0,Custom,2013-03-25 10:33:00,
2013-03-25 05:38:00,22.9,19.0,29.99,WNW,288,4.0,4.0,85,0.00,,,0.01,0,Custom,2013-03-25 10:38:00,
2013-03-25 05:43:00,23.2,19.0,30.00,WNW,284,5.0,5.0,85,0.00,,,0.01,0,Custom,2013-03-25 10:43:00,
2013-03-25 05:48:00,23.4,19.0,30.00,WNW,286,7.0,7.0,85,0.00,,,0.01,0,Custom,2013-03-25 10:48:00,
2013-03-25 05:53:00,23.5,19.0,30.00,WNW,285,5.0,6.0,85,0.00,,,0.01,0,Custom,2013-03-25 10:53:00,
2013-03-25 05:58:00,23.3,19.0,30.00,WNW,298,0.0,4.0,84,0.00,,,0.01,0,Custom,2013-03-25 10:58:00,
2013-03-25 06:04:00,23.3,19.0,30.00,NW,318,2.0,4.0,85,0.00,,,0.01,0,Custom,2013-03-25 11:04:00,
2013-03-25 06:09:00,23.6,20.0,30.00,West,278,2.0,4.0,85,0.00,,,0.01,0,Custom,2013-03-25 11:09:00,
2013-03-25 06:14:00,23.6,20.0,30.00,WNW,285,2.0,5.0,85,0.00,,,0.01,0,Custom,2013-03-25 11:14:00,
2013-03-25 06:19:00,23.8,20.0,30.00,WNW,292,3.0,5.0,85,0.00,,,0.01,0,Custom,2013-03-25 11:19:00,
2013-03-25 06:24:00,23.7,20.0,30.00,WNW,285,4.0,4.0,85,0.00,,,0.01,0,Custom,2013-03-25 11:24:00,
2013-03-25 06:29:00,24.0,20.0,30.01,WNW,290,2.0,4.0,85,0.00,,,0.01,0,Custom,2013-03-25 11:29:00,
2013-03-25 06:34:00,24.1,20.0,30.00,WNW,294,3.0,4.0,85,0.00,,,0.01,0,Custom,2013-03-25 11:34:00,
2013-03-25 06:39:00,24.3,21.0,30.00,NNW,328,2.0,3.0,86,0.00,,,0.01,0,Custom,2013-03-25 11:39:00,
2013-03-25 06:44:00,24.4,20.0,30.00,WNW,292,4.0,4.0,85,0.00,,,0.01,0,Custom,2013-03-25 11:44:00,
2013-03-25 06:49:00,24.4,21.0,30.01,West,277,4.0,4.0,85,0.00,,,0.01,0,Custom,2013-03-25 11:49:00,
2013-03-25 06:54:00,24.4,20.0,30.01,WNW,295,2.0,4.0,85,0.00,,,0.01,0,Custom,2013-03-25 11:54:00,
2013-03-25 06:59:00,24.5,21.0,30.01,West,276,6.0,6.0,85,0.00,,,0.01,0,Custom,2013-03-25 11:59:00,
2013-03-25 07:04:00,24.7,21.0,30.01,NNW,347,4.0,5.0,85,0.00,,,0.01,0,Custom,2013-03-25 12:04:00,
2013-03-25 07:09:00,24.7,21.0,30.01,WNW,287,2.0,5.0,86,0.00,,,0.01,0,Custom,2013-03-25 12:09:00,
2013-03-25 07:14:00,24.7,21.0,30.01,WNW,287,4.0,6.0,86,0.00,,,0.01,0,Custom,2013-03-25 12:14:00,
2013-03-25 07:19:00,24.7,21.0,30.01,WNW,296,4.0,7.0,85,0.00,,,0.01,0,Custom,2013-03-25 12:19:00,
2013-03-25 07:24:00,24.7,21.0,30.01,WNW,288,0.0,4.0,86,0.00,,,0.01,0,Custom,2013-03-25 12:24:00,
2013-03-25 07:29:00,24.6,21.0,30.01,NNW,338,2.0,4.0,86,0.00,,,0.01,0,Custom,2013-03-25 12:29:00,
2013-03-25 07:34:00,24.6,21.0,30.01,NW,326,0.0,5.0,87,0.00,,,0.01,0,Custom,2013-03-25 12:34:00,
2013-03-25 07:39:00,24.6,21.0,30.01,WNW,283,4.0,6.0,86,0.00,,,0.01,0,Custom,2013-03-25 12:39:00,
2013-03-25 07:44:00,24.9,22.0,30.02,WNW,283,0.0,5.0,87,0.00,,,0.01,7.8,Custom,2013-03-25 12:44:00,
2013-03-25 07:49:00,24.9,21.0,30.01,WNW,303,3.0,7.0,86,0.00,,,0.01,10.14,Custom,2013-03-25 12:49:00,
2013-03-25 07:54:00,24.9,21.0,30.02,WNW,297,3.0,5.0,86,0.00,,,0.01,13.65,Custom,2013-03-25 12:54:00,
2013-03-25 07:59:00,25.3,22.0,30.02,WNW,289,3.0,4.0,86,0.00,,,0.01,16.77,Custom,2013-03-25 12:59:00,
2013-03-25 08:04:00,25.6,22.0,30.02,WNW,285,0.0,3.0,85,0.00,,,0.01,19.11,Custom,2013-03-25 13:04:00,
2013-03-25 08:09:00,25.7,22.0,30.03,WNW,294,3.0,5.0,85,0.00,,,0.01,21.06,Custom,2013-03-25 13:09:00,
2013-03-25 08:14:00,25.8,22.0,30.03,WNW,299,3.0,4.0,85,0.00,,,0.01,23.4,Custom,2013-03-25 13:14:00,
2013-03-25 08:20:00,26.1,22.0,30.03,WNW,294,3.0,6.0,84,0.00,,,0.01,26.52,Custom,2013-03-25 13:20:00,
2013-03-25 08:25:00,26.3,22.0,30.03,NNE,12,2.0,4.0,84,0.00,,,0.01,32.76,Custom,2013-03-25 13:25:00,
2013-03-25 08:30:00,26.6,22.0,30.03,WNW,293,4.0,6.0,83,0.00,,,0.01,38.61,Custom,2013-03-25 13:30:00,
2013-03-25 08:35:00,26.9,22.0,30.03,WNW,297,2.0,5.0,82,0.00,,,0.01,40.95,Custom,2013-03-25 13:35:00,
2013-03-25 08:40:00,27.2,22.0,30.04,WNW,296,0.0,8.0,81,0.00,,,0.01,46.02,Custom,2013-03-25 13:40:00,
2013-03-25 08:45:00,27.5,22.0,30.04,WNW,291,0.0,5.0,81,0.00,,,0.01,56.55,Custom,2013-03-25 13:45:00,
2013-03-25 08:50:00,28.1,23.0,30.04,NW,317,4.0,4.0,80,0.00,,,0.01,62.79,Custom,2013-03-25 13:50:00,
2013-03-25 08:55:00,28.1,22.0,30.04,WNW,284,3.0,4.0,79,0.00,,,0.01,70.98,Custom,2013-03-25 13:55:00,
2013-03-25 09:00:00,28.6,23.0,30.05,WSW,258,3.0,4.0,79,0.00,,,0.01,65.13,Custom,2013-03-25 14:00:00,
2013-03-25 09:06:00,28.6,23.0,30.05,WNW,284,2.0,6.0,78,0.00,,,0.01,62.01,Custom,2013-03-25 14:06:00,
2013-03-25 09:11:00,29.1,23.0,30.05,West,264,3.0,4.0,78,0.00,,,0.01,69.03,Custom,2013-03-25 14:11:00,
2013-03-25 09:16:00,29.2,23.0,30.05,North,358,0.0,4.0,77,0.00,,,0.01,62.4,Custom,2013-03-25 14:16:00,
2013-03-25 09:22:00,29.1,23.0,30.05,West,265,0.0,5.0,77,0.00,,,0.01,63.18,Custom,2013-03-25 14:22:00,
2013-03-25 09:27:00,29.2,23.0,30.05,WNW,285,0.0,4.0,77,0.00,,,0.01,70.98,Custom,2013-03-25 14:27:00,
2013-03-25 09:32:00,29.4,23.0,30.05,WNW,285,1.0,5.0,77,0.00,,,0.01,68.64,Custom,2013-03-25 14:32:00,
2013-03-25 09:37:00,29.1,23.0,30.05,WNW,297,0.0,6.0,77,0.00,,,0.01,64.74,Custom,2013-03-25 14:37:00,
2013-03-25 09:42:00,29.2,23.0,30.05,NW,316,4.0,8.0,77,0.00,,,0.01,69.03,Custom,2013-03-25 14:42:00,
2013-03-25 09:47:00,29.6,23.0,30.05,WNW,287,0.0,4.0,76,0.00,,,0.01,74.1,Custom,2013-03-25 14:47:00,
2013-03-25 09:52:00,29.5,22.0,30.05,WNW,297,1.0,5.0,75,0.00,,,0.01,78.39,Custom,2013-03-25 14:52:00,
2013-03-25 09:57:00,29.5,23.0,30.05,WNW,284,7.0,8.0,76,0.00,,,0.01,84.24,Custom,2013-03-25 14:57:00,
2013-03-25 10:02:00,29.7,23.0,30.06,West,269,4.0,8.0,76,0.00,,,0.01,86.19,Custom,2013-03-25 15:02:00,
2013-03-25 10:07:00,30.1,23.0,30.06,NW,308,4.0,4.0,75,0.00,,,0.01,88.14,Custom,2013-03-25 15:07:00,
2013-03-25 10:12:00,30.0,23.0,30.06,WNW,284,3.0,9.0,75,0.00,,,0.01,90.09,Custom,2013-03-25 15:12:00,
2013-03-25 10:17:00,30.3,23.0,30.07,NNW,338,0.0,9.0,74,0.00,,,0.01,100.62,Custom,2013-03-25 15:17:00,
2013-03-25 10:23:00,31.3,23.0,30.07,NW,324,0.0,3.0,74,0.00,,,0.01,106.08,Custom,2013-03-25 15:23:00,
2013-03-25 10:28:00,31.0,23.0,30.07,WNW,295,5.0,5.0,72,0.00,,,0.01,94.38,Custom,2013-03-25 15:28:00,
2013-03-25 10:33:00,31.0,23.0,30.08,North,360,0.0,5.0,73,0.00,,,0.01,94.77,Custom,2013-03-25 15:33:00,
2013-03-25 10:38:00,31.3,24.0,30.08,WNW,287,4.0,4.0,74,0.00,,,0.01,94.77,Custom,2013-03-25 15:38:00,
2013-03-25 10:43:00,31.1,23.0,30.08,North,354,0.0,4.0,73,0.00,,,0.01,109.98,Custom,2013-03-25 15:43:00,
2013-03-25 10:48:00,31.4,23.0,30.08,NW,319,7.0,7.0,71,0.00,,,0.01,121.29,Custom,2013-03-25 15:48:00,
2013-03-25 10:53:00,31.5,22.0,30.08,NW,314,7.0,7.0,69,0.00,,,0.01,129.48,Custom,2013-03-25 15:53:00,
2013-03-25 10:58:00,32.1,24.0,30.08,WNW,289,2.0,10.0,70,0.00,,,0.01,132.99,Custom,2013-03-25 15:58:00,
2013-03-25 11:03:00,32.9,23.0,30.08,WNW,290,4.0,4.0,68,0.00,,,0.01,147.42,Custom,2013-03-25 16:03:00,
2013-03-25 11:08:00,32.9,23.0,30.08,NW,325,3.0,3.0,66,0.00,,,0.01,118.56,Custom,2013-03-25 16:08:00,
2013-03-25 11:13:00,33.0,23.0,30.09,West,274,0.0,4.0,68,0.00,,,0.01,123.24,Custom,2013-03-25 16:13:00,
2013-03-25 11:18:00,32.3,22.0,30.08,NW,322,0.0,8.0,66,0.00,,,0.01,144.3,Custom,2013-03-25 16:18:00,
2013-03-25 11:23:00,32.1,22.0,30.08,WNW,288,2.0,8.0,66,0.00,,,0.01,146.25,Custom,2013-03-25 16:23:00,
2013-03-25 11:29:00,33.5,23.0,30.08,NNW,339,3.0,7.0,66,0.00,,,0.01,162.24,Custom,2013-03-25 16:29:00,
2013-03-25 11:34:00,34.2,24.0,30.09,WNW,286,0.0,4.0,64,0.00,,,0.01,146.64,Custom,2013-03-25 16:34:00,
2013-03-25 11:39:00,35.0,23.0,30.08,WNW,287,5.0,5.0,62,0.00,,,0.01,143.91,Custom,2013-03-25 16:39:00,
2013-03-25 11:44:00,33.4,22.0,30.09,North,360,3.0,9.0,62,0.00,,,0.01,169.65,Custom,2013-03-25 16:44:00,
2013-03-25 11:49:00,34.2,23.0,30.09,NW,315,3.0,5.0,63,0.00,,,0.01,170.43,Custom,2013-03-25 16:49:00,
2013-03-25 11:54:00,33.2,21.0,30.09,WNW,286,6.0,7.0,61,0.00,,,0.01,162.24,Custom,2013-03-25 16:54:00,
2013-03-25 11:59:00,34.2,22.0,30.09,West,272,3.0,10.0,61,0.00,,,0.01,168.48,Custom,2013-03-25 16:59:00,
2013-03-25 12:04:00,34.3,22.0,30.09,WNW,282,2.0,5.0,61,0.00,,,0.01,168.87,Custom,2013-03-25 17:04:00,
2013-03-25 12:09:00,33.2,21.0,30.09,NW,320,5.0,7.0,61,0.00,,,0.01,168.09,Custom,2013-03-25 17:09:00,
2013-03-25 12:14:00,33.7,22.0,30.09,North,356,1.0,7.0,63,0.00,,,0.01,168.09,Custom,2013-03-25 17:14:00,
2013-03-25 12:19:00,34.3,23.0,30.09,WNW,288,2.0,5.0,62,0.00,,,0.01,158.34,Custom,2013-03-25 17:19:00,
2013-03-25 12:24:00,34.3,22.0,30.09,WNW,293,0.0,7.0,61,0.00,,,0.01,170.43,Custom,2013-03-25 17:24:00,
2013-03-25 12:29:00,34.8,23.0,30.09,WNW,294,0.0,6.0,63,0.00,,,0.01,190.32,Custom,2013-03-25 17:29:00,
2013-03-25 12:34:00,35.6,23.0,30.09,North,0,3.0,5.0,60,0.00,,,0.01,173.16,Custom,2013-03-25 17:34:00,
2013-03-25 12:39:00,34.7,22.0,30.09,NNW,343,2.0,6.0,61,0.00,,,0.01,174.72,Custom,2013-03-25 17:39:00,
2013-03-25 12:44:00,34.7,23.0,30.09,North,359,0.0,4.0,61,0.00,,,0.01,171.99,Custom,2013-03-25 17:44:00,
2013-03-25 12:49:00,34.9,22.0,30.09,WNW,283,6.0,6.0,60,0.00,,,0.01,174.72,Custom,2013-03-25 17:49:00,
2013-03-25 12:54:00,34.5,22.0,30.09,NW,317,5.0,7.0,60,0.00,,,0.01,171.99,Custom,2013-03-25 17:54:00,
2013-03-25 12:59:00,34.0,22.0,30.09,WNW,289,3.0,7.0,61,0.00,,,0.01,180.57,Custom,2013-03-25 17:59:00,
2013-03-25 13:04:00,34.3,22.0,30.09,NW,312,5.0,5.0,61,0.00,,,0.01,172.38,Custom,2013-03-25 18:04:00,
2013-03-25 13:09:00,34.2,22.0,30.09,North,360,0.0,5.0,60,0.00,,,0.01,182.52,Custom,2013-03-25 18:09:00,
2013-03-25 13:14:00,34.2,22.0,30.09,West,274,4.0,5.0,62,0.00,,,0.01,220.35,Custom,2013-03-25 18:14:00,
2013-03-25 13:19:00,34.7,23.0,30.09,WNW,292,1.0,8.0,62,0.00,,,0.01,218.01,Custom,2013-03-25 18:19:00,
2013-03-25 13:24:00,34.8,22.0,30.09,WNW,288,0.0,4.0,61,0.00,,,0.01,189.54,Custom,2013-03-25 18:24:00,
2013-03-25 13:29:00,35.3,23.0,30.09,West,277,0.0,6.0,61,0.00,,,0.01,244.14,Custom,2013-03-25 18:29:00,
2013-03-25 13:34:00,35.1,23.0,30.09,WNW,285,5.0,7.0,60,0.00,,,0.01,223.86,Custom,2013-03-25 18:34:00,
2013-03-25 13:39:00,34.9,22.0,30.09,WNW,282,3.0,4.0,59,0.00,,,0.01,159.9,Custom,2013-03-25 18:39:00,
2013-03-25 13:44:00,35.0,23.0,30.10,WSW,243,9.0,9.0,61,0.00,,,0.01,202.41,Custom,2013-03-25 18:44:00,
2013-03-25 13:49:00,35.9,24.0,30.09,West,276,0.0,8.0,60,0.00,,,0.01,202.41,Custom,2013-03-25 18:49:00,
2013-03-25 13:54:00,34.2,22.0,30.10,WNW,297,0.0,8.0,61,0.00,,,0.01,184.08,Custom,2013-03-25 18:54:00,
2013-03-25 13:59:00,34.4,23.0,30.10,WNW,290,0.0,7.0,63,0.00,,,0.01,216.45,Custom,2013-03-25 18:59:00,
2013-03-25 14:04:00,36.1,24.0,30.09,WNW,293,2.0,4.0,61,0.00,,,0.01,330.33,Custom,2013-03-25 19:04:00,
2013-03-25 14:09:00,35.7,22.0,30.10,WNW,301,0.0,7.0,58,0.00,,,0.01,200.85,Custom,2013-03-25 19:09:00,
2013-03-25 14:14:00,35.4,23.0,30.10,North,360,0.0,8.0,59,0.00,,,0.01,231.66,Custom,2013-03-25 19:14:00,
2013-03-25 14:19:00,36.4,23.0,30.09,NNE,12,0.0,4.0,59,0.00,,,0.01,215.67,Custom,2013-03-25 19:19:00,
2013-03-25 14:25:00,35.6,23.0,30.10,WNW,295,0.0,4.0,59,0.00,,,0.01,180.57,Custom,2013-03-25 19:25:00,
2013-03-25 14:30:00,34.9,22.0,30.09,WNW,283,5.0,7.0,60,0.00,,,0.01,334.62,Custom,2013-03-25 19:30:00,
2013-03-25 14:35:00,35.7,23.0,30.09,NW,304,0.0,6.0,60,0.00,,,0.01,403.65,Custom,2013-03-25 19:35:00,
2013-03-25 14:40:00,36.8,23.0,30.09,NW,320,3.0,5.0,57,0.00,,,0.01,286.65,Custom,2013-03-25 19:40:00,
2013-03-25 14:45:00,36.5,23.0,30.09,West,271,6.0,6.0,57,0.00,,,0.01,276.51,Custom,2013-03-25 19:45:00,
2013-03-25 14:50:00,35.7,22.0,30.10,WNW,291,7.0,7.0,58,0.00,,,0.01,189.93,Custom,2013-03-25 19:50:00,
2013-03-25 14:55:00,36.2,24.0,30.09,WNW,288,0.0,7.0,60,0.00,,,0.01,389.61,Custom,2013-03-25 19:55:00,
2013-03-25 15:00:00,36.5,24.0,30.09,WNW,282,3.0,5.0,60,0.00,,,0.01,329.55,Custom,2013-03-25 20:00:00,
2013-03-25 15:05:00,36.5,23.0,30.09,WNW,294,0.0,6.0,58,0.00,,,0.01,237.9,Custom,2013-03-25 20:05:00,
2013-03-25 15:10:00,35.7,22.0,30.09,WNW,283,0.0,8.0,57,0.00,,,0.01,208.65,Custom,2013-03-25 20:10:00,
2013-03-25 15:15:00,36.3,23.0,30.09,WNW,287,2.0,6.0,59,0.00,,,0.01,281.97,Custom,2013-03-25 20:15:00,
2013-03-25 15:20:00,35.9,23.0,30.09,WNW,293,0.0,6.0,60,0.00,,,0.01,203.19,Custom,2013-03-25 20:20:00,
2013-03-25 15:25:00,35.1,22.0,30.09,WNW,290,5.0,6.0,60,0.00,,,0.01,157.56,Custom,2013-03-25 20:25:00,
2013-03-25 15:30:00,35.8,24.0,30.09,WNW,302,0.0,6.0,62,0.00,,,0.01,405.21,Custom,2013-03-25 20:30:00,
2013-03-25 15:35:00,35.4,22.0,30.10,West,271,3.0,6.0,59,0.00,,,0.01,157.95,Custom,2013-03-25 20:35:00,
2013-03-25 15:40:00,34.5,23.0,30.10,West,275,1.0,5.0,63,0.00,,,0.01,138.84,Custom,2013-03-25 20:40:00,
2013-03-25 15:45:00,34.5,23.0,30.10,WNW,282,0.0,4.0,64,0.00,,,0.01,136.5,Custom,2013-03-25 20:45:00,
2013-03-25 15:50:00,34.2,23.0,30.10,WNW,289,5.0,5.0,63,0.00,,,0.01,130.26,Custom,2013-03-25 20:50:00,
2013-03-25 15:55:00,34.4,24.0,30.10,WNW,292,5.0,5.0,65,0.00,,,0.01,138.06,Custom,2013-03-25 20:55:00,
2013-03-25 16:00:00,34.2,24.0,30.11,WNW,299,3.0,4.0,65,0.00,,,0.01,137.67,Custom,2013-03-25 21:00:00,
2013-03-25 16:05:00,34.5,24.0,30.11,WNW,288,0.0,6.0,64,0.00,,,0.01,148.59,Custom,2013-03-25 21:05:00,
2013-03-25 16:10:00,34.1,24.0,30.11,WNW,293,4.0,4.0,65,0.01,,,0.02,96.33,Custom,2013-03-25 21:10:00,
2013-03-25 16:15:00,33.6,24.0,30.11,West,279,3.0,4.0,67,0.01,,,0.02,108.42,Custom,2013-03-25 21:15:00,
2013-03-25 16:20:00,33.9,24.0,30.11,WNW,291,3.0,5.0,67,0.01,,,0.03,115.05,Custom,2013-03-25 21:20:00,
2013-03-25 16:25:00,33.8,24.0,30.11,WNW,301,6.0,6.0,67,0.02,,,0.03,105.3,Custom,2013-03-25 21:25:00,
2013-03-25 16:30:00,33.6,24.0,30.11,West,273,3.0,6.0,68,0.02,,,0.03,159.9,Custom,2013-03-25 21:30:00,
2013-03-25 16:35:00,34.6,24.0,30.11,WNW,291,2.0,5.0,66,0.02,,,0.03,162.24,Custom,2013-03-25 21:35:00,
2013-03-25 16:40:00,35.0,24.0,30.11,NW,316,0.0,2.0,63,0.02,,,0.03,157.17,Custom,2013-03-25 21:40:00,
2013-03-25 16:45:00,34.7,24.0,30.11,WNW,298,0.0,5.0,64,0.03,,,0.04,183.3,Custom,2013-03-25 21:45:00,
2013-03-25 16:50:00,34.4,24.0,30.11,WNW,292,0.0,3.0,65,0.03,,,0.04,106.08,Custom,2013-03-25 21:50:00,
2013-03-25 16:55:00,33.4,24.0,30.12,WNW,285,0.0,6.0,68,0.04,,,0.05,87.75,Custom,2013-03-25 21:55:00,
2013-03-25 17:00:00,33.4,24.0,30.12,WNW,301,0.0,5.0,69,0.04,,,0.05,120.51,Custom,2013-03-25 22:00:00,
2013-03-25 17:05:00,35.4,25.0,30.12,NNW,339,0.0,4.0,65,0.04,,,0.05,196.17,Custom,2013-03-25 22:05:00,
2013-03-25 17:10:00,34.9,24.0,30.12,WNW,284,0.0,5.0,65,0.03,,,0.05,109.98,Custom,2013-03-25 22:10:00,
2013-03-25 17:15:00,34.2,24.0,30.12,WNW,284,0.0,4.0,67,0.04,,,0.06,140.4,Custom,2013-03-25 22:15:00,
2013-03-25 17:20:00,33.9,25.0,30.12,WNW,288,0.0,2.0,69,0.04,,,0.06,122.46,Custom,2013-03-25 22:20:00,
2013-03-25 17:25:00,34.2,26.0,30.12,NW,306,0.0,2.0,70,0.03,,,0.06,122.85,Custom,2013-03-25 22:25:00,
2013-03-25 17:30:00,33.9,25.0,30.12,WNW,291,0.0,3.0,69,0.03,,,0.06,81.9,Custom,2013-03-25 22:30:00,
2013-03-25 17:35:00,33.0,25.0,30.13,WNW,293,0.0,4.0,71,0.04,,,0.07,44.46,Custom,2013-03-25 22:35:00,
2013-03-25 17:40:00,32.8,25.0,30.14,SSE,166,0.0,6.0,73,0.05,,,0.08,75.27,Custom,2013-03-25 22:40:00,
2013-03-25 17:45:00,32.9,26.0,30.14,WNW,303,0.0,3.0,75,0.04,,,0.08,93.6,Custom,2013-03-25 22:45:00,
2013-03-25 17:50:00,33.2,26.0,30.14,North,354,0.0,4.0,73,0.05,,,0.09,90.09,Custom,2013-03-25 22:50:00,
2013-03-25 17:55:00,32.7,26.0,30.14,North,355,2.0,4.0,75,0.05,,,0.11,52.65,Custom,2013-03-25 22:55:00,
2013-03-25 18:00:00,31.8,26.0,30.14,NNW,342,2.0,5.0,79,0.05,,,0.11,40.17,Custom,2013-03-25 23:00:00,
2013-03-25 18:05:00,31.8,26.0,30.14,WNW,300,3.0,3.0,80,0.05,,,0.11,49.14,Custom,2013-03-25 23:05:00,
2013-03-25 18:10:00,31.7,27.0,30.14,WNW,291,0.0,2.0,82,0.06,,,0.12,92.04,Custom,2013-03-25 23:10:00,
2013-03-25 18:15:00,32.4,27.0,30.14,NW,307,0.0,2.0,80,0.06,,,0.13,77.61,Custom,2013-03-25 23:15:00,
2013-03-25 18:20:00,32.9,27.0,30.14,NW,310,0.0,2.0,79,0.06,,,0.13,99.45,Custom,2013-03-25 23:20:00,
2013-03-25 18:25:00,33.0,27.0,30.14,WNW,293,2.0,2.0,78,0.06,,,0.13,55.38,Custom,2013-03-25 23:25:00,
2013-03-25 18:30:00,32.0,26.0,30.15,North,360,2.0,2.0,78,0.06,,,0.13,19.5,Custom,2013-03-25 23:30:00,
2013-03-25 18:35:00,31.1,26.0,30.15,NW,318,2.0,3.0,82,0.06,,,0.14,15.6,Custom,2013-03-25 23:35:00,
2013-03-25 18:40:00,31.0,27.0,30.15,North,0,0.0,2.0,84,0.05,,,0.14,28.86,Custom,2013-03-25 23:40:00,
2013-03-25 18:45:00,31.0,26.0,30.15,WNW,282,0.0,3.0,83,0.05,,,0.14,30.42,Custom,2013-03-25 23:45:00,
2013-03-25 18:50:00,31.0,26.0,30.15,NNW,341,0.0,2.0,83,0.05,,,0.15,28.47,Custom,2013-03-25 23:50:00,
2013-03-25 18:55:00,30.8,26.0,30.16,WNW,289,0.0,4.0,83,0.04,,,0.15,24.18,Custom,2013-03-25 23:55:00,
2013-03-25 19:00:00,30.6,26.0,30.16,North,360,0.0,4.0,82,0.04,,,0.15,19.89,Custom,2013-03-26 00:00:00,
2013-03-25 19:05:00,30.3,26.0,30.16,WSW,257,0.0,3.0,82,0.04,,,0.15,15.6,Custom,2013-03-26 00:05:00,
2013-03-25 19:10:00,30.2,26.0,30.17,NNW,336,0.0,2.0,83,0.03,,,0.15,13.26,Custom,2013-03-26 00:10:00,
2013-03-25 19:15:00,30.2,26.0,30.17,WNW,293,0.0,3.0,83,0.02,,,0.15,10.53,Custom,2013-03-26 00:15:00,
2013-03-25 19:20:00,30.0,26.0,30.18,North,360,0.0,2.0,83,0.02,,,0.15,7.8,Custom,2013-03-26 00:20:00,
2013-03-25 19:25:00,29.9,26.0,30.18,WSW,241,0.0,2.0,84,0.02,,,0.15,0,Custom,2013-03-26 00:25:00,
2013-03-25 19:30:00,29.8,25.0,30.18,North,0,0.0,2.0,83,0.02,,,0.15,0,Custom,2013-03-26 00:30:00,
2013-03-25 19:35:00,29.7,25.0,30.18,WNW,290,2.0,5.0,83,0.01,,,0.15,0,Custom,2013-03-26 00:35:00,
2013-03-25 19:40:00,29.7,25.0,30.18,WNW,288,0.0,2.0,84,0.01,,,0.15,0,Custom,2013-03-26 00:40:00,
2013-03-25 19:45:00,29.4,25.0,30.19,WNW,285,4.0,7.0,84,0.01,,,0.15,0,Custom,2013-03-26 00:45:00,
2013-03-25 19:50:00,29.2,25.0,30.19,NNW,336,0.0,4.0,84,0.00,,,0.15,0,Custom,2013-03-26 00:50:00,
2013-03-25 19:55:00,29.1,25.0,30.19,WNW,300,0.0,2.0,85,0.00,,,0.15,0,Custom,2013-03-26 00:55:00,
2013-03-25 20:00:00,29.1,25.0,30.19,NNW,345,0.0,2.0,85,0.00,,,0.15,0,Custom,2013-03-26 01:00:00,
2013-03-25 20:05:00,29.1,25.0,30.19,WNW,299,0.0,4.0,85,0.00,,,0.15,0,Custom,2013-03-26 01:05:00,
2013-03-25 20:10:00,29.1,25.0,30.19,WNW,285,1.0,3.0,85,0.00,,,0.15,0,Custom,2013-03-26 01:10:00,
2013-03-25 20:15:00,29.0,25.0,30.19,NW,325,2.0,2.0,84,0.00,,,0.15,0,Custom,2013-03-26 01:15:00,
2013-03-25 20:20:00,29.1,25.0,30.19,WNW,298,2.0,5.0,84,0.00,,,0.15,0,Custom,2013-03-26 01:20:00,
2013-03-25 20:25:00,28.9,25.0,30.19,NNW,328,0.0,5.0,84,0.00,,,0.15,0,Custom,2013-03-26 01:25:00,
2013-03-25 20:30:00,28.9,25.0,30.20,North,0,0.0,3.0,85,0.00,,,0.15,0,Custom,2013-03-26 01:30:00,
2013-03-25 20:35:00,28.9,25.0,30.20,WNW,294,0.0,4.0,84,0.00,,,0.15,0,Custom,2013-03-26 01:35:00,
2013-03-25 20:40:00,29.0,25.0,30.20,WSW,243,2.0,2.0,84,0.00,,,0.15,0,Custom,2013-03-26 01:40:00,
2013-03-25 20:45:00,28.7,24.0,30.20,West,262,3.0,5.0,84,0.00,,,0.15,0,Custom,2013-03-26 01:45:00,
2013-03-25 20:50:00,28.7,24.0,30.21,West,264,2.0,2.0,84,0.00,,,0.15,0,Custom,2013-03-26 01:50:00,
2013-03-25 20:55:00,28.6,24.0,30.21,NNW,331,0.0,2.0,84,0.00,,,0.15,0,Custom,2013-03-26 01:55:00,
2013-03-25 21:00:00,28.6,24.0,30.21,NW,321,0.0,2.0,84,0.00,,,0.15,0,Custom,2013-03-26 02:00:00,
2013-03-25 21:05:00,28.6,24.0,30.21,NW,312,0.0,2.0,83,0.00,,,0.15,0,Custom,2013-03-26 02:05:00,
2013-03-25 21:10:00,28.6,24.0,30.21,WNW,294,0.0,2.0,83,0.00,,,0.15,0,Custom,2013-03-26 02:10:00,
2013-03-25 21:15:00,28.5,24.0,30.21,North,360,0.0,1.0,83,0.00,,,0.15,0,Custom,2013-03-26 02:15:00,
2013-03-25 21:20:00,28.5,24.0,30.21,WNW,288,0.0,4.0,83,0.00,,,0.15,0,Custom,2013-03-26 02:20:00,
2013-03-25 21:25:00,28.5,24.0,30.22,WNW,288,0.0,1.0,84,0.00,,,0.15,0,Custom,2013-03-26 02:25:00,
2013-03-25 21:30:00,28.4,24.0,30.22,WNW,288,0.0,1.0,83,0.00,,,0.15,0,Custom,2013-03-26 02:30:00,
2013-03-25 21:35:00,28.4,24.0,30.22,NW,314,0.0,1.0,83,0.00,,,0.15,0,Custom,2013-03-26 02:35:00,
2013-03-25 21:40:00,28.4,24.0,30.22,NNW,348,2.0,2.0,82,0.00,,,0.15,0,Custom,2013-03-26 02:40:00,
2013-03-25 21:45:00,28.5,24.0,30.22,WNW,301,0.0,3.0,82,0.00,,,0.15,0,Custom,2013-03-26 02:45:00,
2013-03-25 21:50:00,28.4,24.0,30.22,WNW,294,0.0,1.0,82,0.00,,,0.15,0,Custom,2013-03-26 02:50:00,
2013-03-25 21:55:00,28.5,24.0,30.22,WNW,298,0.0,2.0,82,0.00,,,0.15,0,Custom,2013-03-26 02:55:00,
2013-03-25 22:00:00,28.5,24.0,30.22,NW,306,0.0,2.0,82,0.00,,,0.15,0,Custom,2013-03-26 03:00:00,
2013-03-25 22:05:00,28.4,24.0,30.23,NW,307,0.0,2.0,82,0.00,,,0.15,0,Custom,2013-03-26 03:05:00,
2013-03-25 22:10:00,28.3,23.0,30.23,NW,307,0.0,1.0,82,0.00,,,0.15,0,Custom,2013-03-26 03:10:00,
2013-03-25 22:15:00,28.4,23.0,30.23,WNW,285,0.0,1.0,82,0.00,,,0.15,0,Custom,2013-03-26 03:15:00,
2013-03-25 22:20:00,28.4,24.0,30.23,WNW,294,0.0,4.0,82,0.00,,,0.15,0,Custom,2013-03-26 03:20:00,
2013-03-25 22:25:00,28.4,24.0,30.23,WNW,294,0.0,2.0,82,0.00,,,0.15,0,Custom,2013-03-26 03:25:00,
2013-03-25 22:30:00,28.3,23.0,30.23,WNW,282,0.0,2.0,82,0.00,,,0.15,0,Custom,2013-03-26 03:30:00,
2013-03-25 22:35:00,28.3,23.0,30.24,NNW,334,1.0,2.0,82,0.00,,,0.15,0,Custom,2013-03-26 03:35:00,
2013-03-25 22:40:00,28.2,23.0,30.24,NW,311,0.0,2.0,82,0.00,,,0.15,0,Custom,2013-03-26 03:40:00,
2013-03-25 22:45:00,28.2,23.0,30.24,NW,309,0.0,2.0,82,0.00,,,0.15,0,Custom,2013-03-26 03:45:00,
2013-03-25 22:50:00,28.0,23.0,30.24,WNW,287,4.0,0.0,82,0.00,,,0.15,0,Custom,2013-03-26 03:50:00,
2013-03-25 22:55:00,27.9,23.0,30.24,NNW,345,0.0,3.0,82,0.00,,,0.15,0,Custom,2013-03-26 03:55:00,
2013-03-25 23:00:00,27.8,23.0,30.24,NNW,345,0.0,0.0,81,0.00,,,0.15,0,Custom,2013-03-26 04:00:00,
2013-03-25 23:01:00,27.8,23.0,30.24,NNW,345,0.0,0.0,81,0.00,,,0.15,0,Custom,2013-03-26 04:01:00,
2013-03-25 23:07:00,27.7,23.0,30.24,WNW,298,0.0,1.0,82,0.00,,,0.15,0,Custom,2013-03-26 04:07:00,
2013-03-25 23:09:00,27.7,23.0,30.24,WNW,298,0.0,1.0,81,0.00,,,0.15,0,Custom,2013-03-26 04:09:00,
2013-03-25 23:14:00,27.6,23.0,30.24,WNW,298,0.0,1.0,82,0.00,,,0.15,0,Custom,2013-03-26 04:14:00,
2013-03-25 23:19:00,27.5,23.0,30.24,WNW,298,0.0,0.0,82,0.00,,,0.15,0,Custom,2013-03-26 04:19:00,
2013-03-25 23:24:00,27.4,22.0,30.24,WNW,298,0.0,2.0,82,0.00,,,0.15,0,Custom,2013-03-26 04:24:00,
2013-03-25 23:29:00,27.2,22.0,30.24,WNW,298,0.0,0.0,81,0.00,,,0.15,0,Custom,2013-03-26 04:29:00,
2013-03-25 23:34:00,26.9,22.0,30.24,WNW,298,0.0,0.0,81,0.00,,,0.15,0,Custom,2013-03-26 04:34:00,
2013-03-25 23:39:00,26.7,22.0,30.24,WNW,298,0.0,1.0,82,0.00,,,0.15,0,Custom,2013-03-26 04:39:00,
2013-03-25 23:44:00,26.5,22.0,30.24,WNW,298,0.0,1.0,82,0.00,,,0.15,0,Custom,2013-03-26 04:44:00,
2013-03-25 23:49:00,26.3,22.0,30.24,WNW,298,0.0,1.0,82,0.00,,,0.15,0,Custom,2013-03-26 04:49:00,
2013-03-25 23:54:00,26.1,22.0,30.24,WNW,298,0.0,1.0,83,0.00,,,0.15,0,Custom,2013-03-26 04:54:00,
2013-03-25 23:59:00,25.9,21.0,30.24,WNW,298,0.0,1.0,83,0.00,,,0.15,0,Custom,2013-03-26 04:59:00,